Flag Weather past 2 weeks in Tuzla, Bosnia-Herzegovina

Now
34 °F

Fog.


Feels Like: 34 °F
Forecast: 32 / 49 °F
Wind: 1 mph from North

Location: Tuzla

Current Time: Nov 23, 2014 at 11:19:36 AM

Latest Report: Nov 23, 2014 at 11:00 AM


Visibility: 0 mi

Pressure: 30.39 "Hg

Humidity: 100%

Dew point: 34 °F

Location of TuzlaLocation

Historic Weather in Tuzla — Graph

°F

Tuzla temperature yesterday

Maximum temperature yesterday: 52 °F (at 1:30 PM)
Minimum temperature yesterday: 30 °F (at 5:00 AM)
Average temperature yesterday: 39 °F

Past Weeks' High & Low Weather Summary

 TemperatureHumidityPressure
High66 °F (Nov 9, 1:00 PM)100% (Nov 8, 10:00 AM)30.39 "Hg (Nov 8, 10:00 AM)
Low27 °F (Nov 23, 5:00 AM)50% (Nov 22, 2:30 PM)29.71 "Hg (Nov 13, 5:30 AM)
Average50 °F92%30.00 "Hg
* Reported Nov 8 10:00 AM — Nov 23 10:00 AM, Tuzla, Weather by CustomWeather, © 2014

Note: Actual official high and low records may vary slightly from our data, if they occured in-between our weather recording intervals... More about our weather records

Advertising

Tuzla weather history for previous 24 hours

 ConditionsComfort  
Time TempWeatherWind HumidityBarometerVisibility
10:00 AM
Nov 23
30 °FIce fog.1 mph100%30.39 "Hg0 mi
9:30 AM30 °FIce fog.2 mph100%30.39 "Hg0 mi
9:00 AM30 °FIce fog.1 mph100%30.39 "Hg0 mi
8:00 AM28 °FIce fog.1 mph100%30.39 "Hg0 mi
7:00 AM27 °FIce fog.1 mph100%30.36 "Hg0 mi
6:00 AM27 °FIce fog.1 mph100%30.36 "Hg0 mi
5:30 AM27 °FIce fog.No wind100%30.36 "Hg0 mi
5:00 AM27 °FFog.1 mph100%30.36 "Hg0 mi
8:00 PM
Nov 22
36 °FClear.2 mph100%30.30 "Hg10 mi
7:00 PM37 °FClear.2 mph93%30.30 "Hg10 mi
6:30 PM39 °FPassing clouds.5 mph93%30.30 "HgN/A
6:00 PM39 °FClear.5 mph87%30.30 "Hg10 mi
5:30 PM43 °FPassing clouds.3 mph76%30.30 "HgN/A
5:00 PM45 °FClear.2 mph71%30.30 "Hg10 mi
4:00 PM46 °FSunny.5 mph66%30.27 "Hg10 mi
3:30 PM48 °FSunny.5 mph66%30.27 "Hg10 mi
3:00 PM50 °FPassing clouds.6 mph58%30.27 "HgN/A
2:30 PM52 °FPassing clouds.3 mph50%30.27 "HgN/A
2:00 PM52 °FPassing clouds.3 mph54%30.27 "HgN/A
1:30 PM52 °FPassing clouds.3 mph54%30.27 "HgN/A
1:00 PM46 °FPassing clouds.3 mph62%30.27 "HgN/A
12:30 PM45 °FClear.2 mph100%30.27 "Hg5 mi
12:00 PM43 °FClear.1 mph100%30.30 "Hg5 mi
11:30 AM39 °FFog.2 mph100%30.30 "Hg2 mi
11:00 AM37 °FFog.2 mph100%30.30 "Hg1 mi
Weather by CustomWeather, © 2014

See weather overviewHow to use our weather pages